This is the latest recevied weather packets stored in our database for station/object W2BP-13. If no packets are shown the sender has not sent any weather packets the latest 10 day(s).
| Time | Temp. | Humidity | Pressure | Rain* | Wind** | Luminosity | Snow |
|---|---|---|---|---|---|---|---|
| 1778310632 | 12.78° C | 66% | 1023.2 hPa | 0 mm | - | - | - |
| 1778309732 | 12.78° C | 65% | 1023.2 hPa | 0 mm | - | - | - |
| 1778308832 | 12.78° C | 65% | 1023.1 hPa | 0 mm | - | - | - |
| 1778307932 | 13.33° C | 62% | 1022.9 hPa | 0 mm | - | - | - |
| 1778307032 | 13.33° C | 62% | 1022.8 hPa | 0 mm | - | - | - |
| 1778306133 | 13.89° C | 62% | 1022.8 hPa | 0 mm | - | - | - |
| 1778305233 | 13.89° C | 60% | 1022.6 hPa | 0 mm | - | - | - |
| 1778304332 | 14.44° C | 59% | 1022.3 hPa | 0 mm | - | - | - |
| 1778303433 | 15° C | 56% | 1021.9 hPa | 0 mm | - | - | - |
| 1778302532 | 15° C | 55% | 1021.7 hPa | 0 mm | - | - | - |
| 1778301633 | 15.56° C | 53% | 1021.7 hPa | 0 mm | - | - | - |
| 1778300733 | 15.56° C | 52% | 1021.4 hPa | 0 mm | - | - | - |
| 1778299832 | 16.11° C | 50% | 1020.9 hPa | 0 mm | - | - | - |
| 1778298932 | 16.67° C | 47% | 1020.6 hPa | 0 mm | - | - | - |
| 1778298033 | 17.22° C | 46% | 1020.5 hPa | 0 mm | - | - | - |
| 1778297133 | 17.78° C | 43% | 1020.4 hPa | 0 mm | - | - | - |
| 1778296233 | 18.89° C | 39% | 1019.9 hPa | 0 mm | - | - | - |
| 1778295333 | 19.44° C | 37% | 1019.7 hPa | 0 mm | - | - | - |
| 1778294432 | 20° C | 35% | 1019.6 hPa | 0 mm | - | - | - |
| 1778293532 | 20.56° C | 34% | 1019.5 hPa | 0 mm | - | - | - |
| 1778292633 | 21.67° C | 32% | 1019.1 hPa | 0 mm | - | - | - |
| 1778291732 | 22.22° C | 30% | 1019.2 hPa | 0 mm | - | - | - |
| 1778290832 | 22.78° C | 29% | 1018.8 hPa | 0 mm | - | - | - |
| 1778289933 | 22.78° C | 27% | 1018.8 hPa | 0 mm | - | - | - |
| 1778289033 | 23.89° C | 25% | 1019.1 hPa | 0 mm | - | - | - |
* Rain latest hour (hover to see other rain measurements)
** Current wind speed in m/s (hover to see current wind gust speed)